#timestamp,LO_Frequency,Hit,StdDev 
1524718815.2,286046998.6,N
1524718835.1,286047000.5,N
1524718836.0,286047000.5,N
1524718855.8,286047000.6,N
1524718875.6,286047000.0,N
1524718895.5,286047002.1,N
1524718915.3,286047002.8,N
1524718935.2,286047000.2,N
1524718955.9,286047000.6,N
1524718975.7,286047000.3,N
1524718995.6,286047000.2,N
1524719015.4,286047000.4,N
1524719035.3,286047000.5,N
1524719055.1,286047001.0,N
1524719056.0,286047001.0,N
1524719075.8,286047000.0,N
1524719095.7,286047000.0,N
1524719115.5,286047002.7,N
1524719135.3,286047002.7,N
1524719155.2,286047002.5,N
1524719175.0,286046999.7,N
1524719175.9,286046999.7,N
1524719195.8,286047002.6,N
1524719215.6,286046999.8,N
1524719235.4,286047000.4,N
1524719255.3,286046999.8,N
1524719275.1,286047000.5,N
1524719295.9,286047001.2,N
1524719315.7,286046998.3,N
1524719335.5,286046998.1,N
1524719355.4,286046998.7,N
1524719375.2,286046999.0,N
1524719395.1,286047001.2,N
1524719396.0,286047001.2,N
1524719415.8,286046998.2,N
1524719435.6,286046998.1,N
1524719455.5,286046998.6,N
1524719475.3,286046997.0,N
1524719495.2,286046999.6,N
1524719515.9,286046998.9,N
1524719535.7,286046998.7,N
1524719555.6,286046999.1,N
1524719575.4,286046997.3,N
1524719595.2,286046997.4,N
1524719615.1,286046997.0,N
1524719616.0,286046997.0,N
1524719635.8,286046997.7,N
1524719655.7,286046997.0,N
1524719675.5,286046996.7,N
1524719695.3,286046996.5,N
1524719715.2,286046997.7,N
1524719735.0,286046999.1,N
1524719735.9,286046999.1,N
1524719755.8,286046997.2,N
1524719775.6,286046996.5,N
1524719795.4,286046996.8,N
1524719815.3,286046996.5,N
1524719835.1,286046999.0,N
1524719855.9,286046999.4,N
1524719875.7,286046999.5,N
1524719895.5,286046996.9,N
1524719915.4,286046996.9,N
1524719935.2,286046996.7,N
1524719955.0,286046997.6,N
1524719955.9,286046997.6,N
1524719975.8,286046995.1,Y
1524719995.6,286046998.6,P
1524720015.5,286046999.4,N
1524720035.3,286046999.4,N
1524720055.1,286046999.0,N
1524720075.9,286046998.7,N
1524720095.7,286046998.8,N
1524720115.6,286046998.9,N
1524720135.4,286046998.9,N
1524720155.2,286046998.7,N
1524720175.1,286046998.2,Y
1524720176.0,286046998.2,P
1524720195.8,286046998.6,P
1524720215.6,286047000.8,P
1524720235.5,286046998.8,N
1524720255.3,286046998.7,N
1524720275.2,286046998.1,N
1524720295.9,286047001.2,N
1524720315.7,286047000.7,N
1524720335.6,286046998.4,N
1524720355.4,286046999.3,N
1524720375.3,286046999.5,N
1524720395.1,286046998.5,N
1524720396.0,286046998.5,N
1524720415.8,286047001.1,N
1524720435.7,286046998.8,N
1524720455.5,286046998.1,N
1524720475.3,286046998.3,N
1524720495.2,286047001.2,N
1524720515.0,286046998.3,N
1524720515.9,286046998.3,N
1524720535.8,286046998.3,N
1524720555.6,286046998.8,N
1524720575.4,286046998.7,N
1524720595.3,286046998.9,N
1524720615.1,286046996.6,Y
1524720635.9,286046998.1,P
1524720655.7,286046998.6,N
1524720675.5,286046998.9,N
1524720695.4,286047000.7,N
1524720715.2,286046998.2,N
1524720735.0,286046998.7,N
1524720735.9,286046998.7,N
1524720755.8,286046999.0,N
1524720775.6,286046998.6,N
1524720795.5,286046999.3,N
1524720815.3,286046999.4,N
1524720835.1,286046999.6,N
1524720855.9,286046996.9,Y
1524720875.7,286046998.6,P
1524720895.6,286046999.5,N
1524720915.4,286046999.1,N
1524720935.2,286046999.3,N
1524720955.1,286046996.8,Y
1524720956.0,286046996.8,P
1524720975.8,286046999.0,N
1524720995.6,286046998.5,N
1524721015.5,286046998.2,N
1524721035.3,286047000.6,N
1524721055.2,286047000.0,N
1524721075.9,286047000.3,N
1524721095.7,286046999.9,N
1524721115.6,286047001.9,N
1524721135.4,286047000.2,N
1524721155.2,286046999.8,N
1524721175.1,286046999.9,N
1524721176.0,286046999.9,N
1524721195.8,286047000.9,N
1524721215.7,286047000.6,N
1524721235.5,286047000.7,N
1524721255.3,286047000.8,N
1524721275.2,286046998.1,N
1524721295.0,286047000.8,N
1524721295.9,286047000.8,N
1524721315.8,286046999.9,N
1524721335.6,286047001.1,N
1524721385.4,286046998.7,E
1524721395.4,286046998.4,N
1524721415.2,286046998.9,P
1524721435.0,286046999.3,N
1524721435.9,286046999.3,N
1524721455.8,286046999.4,N
1524721475.6,286046999.3,N
1524721495.5,286046999.1,N
1524721515.3,286046999.4,N
1524721535.1,286046998.6,Y
1524721555.9,286047002.1,P
1524721575.7,286047002.0,N
1524721595.5,286047001.5,N
1524721615.4,286046999.9,N
1524721635.2,286047001.1,N
1524721655.1,286046998.4,N
1524721656.0,286046998.4,N
1524721675.8,286047001.2,N
1524721695.6,286047000.5,N
1524721715.5,286047000.5,N
1524721735.3,286047001.6,N
1524721755.2,286047001.9,N
1524721775.9,286047002.7,N
1524721795.7,286047002.1,N
1524721815.6,286046999.7,N
1524721835.4,286047000.5,N
1524721855.2,286046998.4,N
1524721875.1,286047000.1,N
1524721876.0,286047000.1,N
1524721895.8,286046999.9,N
1524721915.7,286047000.7,N
1524721935.5,286047001.0,N
1524721955.3,286047001.0,N
1524721975.2,286047002.7,N
1524721995.0,286047004.1,Y
1524721995.9,286047004.1,P
1524722015.7,286047001.6,N
1524722035.6,286047001.4,N
1524722055.4,286047001.3,N
1524722075.3,286047003.5,N
1524722095.1,286047003.1,N
1524722096.0,286047003.1,N
1524722115.8,286047003.5,N
1524722135.7,286047005.2,Y
1524722155.5,286047000.9,P
1524722175.4,286046998.2,N
1524722195.2,286046999.4,N
1524722215.0,286046997.8,N
1524722215.9,286046997.8,N
1524722235.8,286046996.6,N
1524722255.6,286046996.6,N
1524722275.5,286046999.2,N
1524722295.3,286046998.9,N
1524722315.1,286046999.4,N
1524722335.9,286047000.7,N
1524722355.7,286047000.9,N
1524722375.5,286047000.9,N
1524722395.4,286047002.7,N
